TimeMST,TemperatureF,Dew PointF,Humidity,Sea Level PressureIn,VisibilityMPH,Wind Direction,Wind SpeedMPH,Gust SpeedMPH,PrecipitationIn,Events,Conditions,WindDirDegrees,DateUTC
12:15 AM,10.4,5.0,79,30.06,10.0,NNE,4.6,-,N/A,,Overcast,20,2012-12-24 07:15:00
12:35 AM,12.2,8.6,85,30.06,10.0,Calm,Calm,-,N/A,,Overcast,0,2012-12-24 07:35:00
12:55 AM,12.2,1.4,62,30.03,10.0,ENE,3.5,-,N/A,,Overcast,70,2012-12-24 07:55:00
1:15 AM,12.2,8.6,85,30.01,10.0,Calm,Calm,-,N/A,,Mostly Cloudy,0,2012-12-24 08:15:00
1:35 AM,12.2,5.0,73,30.01,10.0,Calm,Calm,-,N/A,,Mostly Cloudy,0,2012-12-24 08:35:00
1:55 AM,12.2,8.6,85,30.01,10.0,Calm,Calm,-,N/A,,Overcast,0,2012-12-24 08:55:00
2:15 AM,12.2,6.8,79,30.00,10.0,Calm,Calm,-,N/A,,Mostly Cloudy,0,2012-12-24 09:15:00
2:35 AM,12.2,3.2,67,30.00,10.0,Calm,Calm,-,N/A,,Partly Cloudy,0,2012-12-24 09:35:00
2:55 AM,12.2,6.8,79,30.00,10.0,Calm,Calm,-,N/A,,Mostly Cloudy,0,2012-12-24 09:55:00
3:15 AM,10.4,1.4,67,30.00,10.0,Calm,Calm,-,N/A,,Overcast,0,2012-12-24 10:15:00
3:35 AM,10.4,8.6,92,30.00,10.0,South,3.5,-,N/A,,Overcast,190,2012-12-24 10:35:00
3:55 AM,10.4,8.6,92,29.98,10.0,Calm,Calm,-,N/A,,Overcast,0,2012-12-24 10:55:00
4:15 AM,12.2,3.2,67,29.96,10.0,Calm,Calm,-,N/A,,Overcast,0,2012-12-24 11:15:00
4:35 AM,12.2,6.8,79,29.96,10.0,Calm,Calm,-,N/A,,Overcast,0,2012-12-24 11:35:00
4:55 AM,12.2,10.4,92,29.94,10.0,NNE,3.5,-,N/A,,Overcast,30,2012-12-24 11:55:00
5:35 AM,14.0,6.8,73,29.94,3.0,Calm,Calm,-,N/A,,Overcast,0,2012-12-24 12:35:00
5:55 AM,12.2,8.6,85,29.93,1.8,NE,5.8,-,N/A,,Overcast,40,2012-12-24 12:55:00
6:15 AM,14.0,10.4,86,29.93,2.0,NNE,3.5,-,N/A,,Overcast,20,2012-12-24 13:15:00
6:35 AM,14.0,8.6,79,29.92,2.0,NNE,5.8,-,N/A,,Overcast,20,2012-12-24 13:35:00
6:55 AM,14.0,8.6,79,29.93,4.0,North,3.5,-,N/A,,Overcast,350,2012-12-24 13:55:00
7:35 AM,14.0,12.2,93,29.91,5.0,Calm,Calm,-,N/A,,Overcast,0,2012-12-24 14:35:00
7:55 AM,15.8,8.6,73,29.91,10.0,Calm,Calm,-,N/A,,Mostly Cloudy,0,2012-12-24 14:55:00
8:15 AM,14.0,5.0,67,29.90,10.0,Calm,Calm,-,N/A,,Overcast,0,2012-12-24 15:15:00
8:35 AM,15.8,10.4,79,29.90,10.0,Calm,Calm,-,N/A,,Overcast,0,2012-12-24 15:35:00
8:55 AM,15.8,12.2,86,29.90,5.0,Calm,Calm,-,N/A,,Mostly Cloudy,0,2012-12-24 15:55:00
9:15 AM,15.8,10.4,79,29.90,1.2,Calm,Calm,-,N/A,,Overcast,0,2012-12-24 16:15:00
9:35 AM,15.8,10.4,79,29.89,1.2,Calm,Calm,-,N/A,,Overcast,0,2012-12-24 16:35:00
10:15 AM,17.6,12.2,79,29.88,4.0,Calm,Calm,-,N/A,,Mostly Cloudy,0,2012-12-24 17:15:00
10:35 AM,17.6,10.4,73,29.88,7.0,Calm,Calm,-,N/A,,Overcast,0,2012-12-24 17:35:00
10:55 AM,17.6,10.4,73,29.86,0.5,Calm,Calm,-,N/A,,Overcast,0,2012-12-24 17:55:00
11:15 AM,17.6,15.8,93,29.84,0.8,Calm,Calm,-,N/A,,Overcast,0,2012-12-24 18:15:00
11:35 AM,17.6,15.8,93,29.83,1.2,Calm,Calm,-,N/A,,Overcast,0,2012-12-24 18:35:00
11:55 AM,19.4,15.8,86,29.80,0.8,Calm,Calm,-,0.02,,Overcast,0,2012-12-24 18:55:00
12:15 PM,19.4,12.2,74,29.77,3.0,Calm,Calm,-,N/A,,Mostly Cloudy,0,2012-12-24 19:15:00
12:35 PM,19.4,14.0,80,29.76,8.0,Calm,Calm,-,N/A,,Mostly Cloudy,0,2012-12-24 19:35:00
12:55 PM,21.2,12.2,68,29.75,5.0,South,4.6,-,N/A,,Mostly Cloudy,190,2012-12-24 19:55:00
1:15 PM,21.2,14.0,74,29.74,4.0,Calm,Calm,-,N/A,,Overcast,0,2012-12-24 20:15:00
1:35 PM,21.2,15.8,80,29.72,0.5,Calm,Calm,-,0.01,,Overcast,0,2012-12-24 20:35:00
1:55 PM,23.0,17.6,80,29.70,2.0,Calm,Calm,-,0.01,,Overcast,0,2012-12-24 20:55:00
2:15 PM,23.0,17.6,80,29.70,8.0,Calm,Calm,-,0.01,,Overcast,0,2012-12-24 21:15:00
2:35 PM,23.0,17.6,80,29.70,10.0,SW,3.5,-,0.01,,Mostly Cloudy,220,2012-12-24 21:35:00
2:55 PM,23.0,19.4,86,29.69,1.5,West,4.6,-,0.01,,Overcast,270,2012-12-24 21:55:00
3:15 PM,23.0,19.4,86,29.69,1.8,West,5.8,-,N/A,,Overcast,260,2012-12-24 22:15:00
3:35 PM,23.0,19.4,86,29.69,1.8,SW,4.6,-,N/A,,Overcast,230,2012-12-24 22:35:00
4:15 PM,23.0,19.4,86,29.68,1.8,West,4.6,-,N/A,,Overcast,270,2012-12-24 23:15:00
4:35 PM,21.2,19.4,93,29.68,2.0,WSW,4.6,-,N/A,,Overcast,250,2012-12-24 23:35:00
5:15 PM,23.0,19.4,86,29.67,0.8,Calm,Calm,-,N/A,,Overcast,0,2012-12-25 00:15:00
5:35 PM,21.2,19.4,93,29.67,3.0,Calm,Calm,-,N/A,,Mostly Cloudy,0,2012-12-25 00:35:00
5:55 PM,21.2,19.4,93,29.67,6.0,Calm,Calm,-,N/A,,Overcast,0,2012-12-25 00:55:00
6:15 PM,23.0,19.4,86,29.68,1.2,Calm,Calm,-,N/A,,Overcast,0,2012-12-25 01:15:00
6:35 PM,21.2,19.4,93,29.68,2.5,Calm,Calm,-,N/A,,Overcast,0,2012-12-25 01:35:00
6:55 PM,21.2,19.4,93,29.68,3.0,Calm,Calm,-,0.02,,Overcast,0,2012-12-25 01:55:00
7:15 PM,21.2,19.4,93,29.68,5.0,Calm,Calm,-,N/A,,Overcast,0,2012-12-25 02:15:00
7:35 PM,19.4,17.6,93,29.68,4.0,Calm,Calm,-,N/A,,Overcast,0,2012-12-25 02:35:00
8:15 PM,19.4,14.0,80,29.68,6.0,Calm,Calm,-,N/A,,Scattered Clouds,0,2012-12-25 03:15:00
8:35 PM,17.6,8.6,68,29.69,7.0,Calm,Calm,-,N/A,,Mostly Cloudy,0,2012-12-25 03:35:00
9:15 PM,17.6,8.6,68,29.70,8.0,Calm,Calm,-,N/A,,Overcast,0,2012-12-25 04:15:00
9:35 PM,17.6,12.2,79,29.70,10.0,Calm,Calm,-,N/A,,Overcast,0,2012-12-25 04:35:00
9:55 PM,17.6,15.8,93,29.71,6.0,Calm,Calm,-,N/A,,Overcast,0,2012-12-25 04:55:00
10:15 PM,19.4,19.4,100,29.72,3.0,Calm,Calm,-,N/A,,Overcast,0,2012-12-25 05:15:00
10:35 PM,19.4,19.4,100,29.72,1.5,Calm,Calm,-,N/A,,Overcast,0,2012-12-25 05:35:00
10:55 PM,19.4,19.4,100,29.73,2.0,Calm,Calm,-,0.01,,Overcast,0,2012-12-25 05:55:00
11:15 PM,19.4,17.6,93,29.73,2.5,Calm,Calm,-,N/A,,Overcast,0,2012-12-25 06:15:00
11:35 PM,17.6,12.2,79,29.74,5.0,West,3.5,-,N/A,,Overcast,260,2012-12-25 06:35:00
11:55 PM,17.6,12.2,79,29.74,9.0,WSW,3.5,-,N/A,,Overcast,250,2012-12-25 06:55:00